Voltar ao catálogo

COSMOS 1579 COOLANT

AtivoLEO
NORAD 26519·DEBRIS·🇷🇺 Russia

Lançado Jun 29, 1984 de Baikonur Cosmodrome

Loading…

Próximas Passagens (próximas 24 horas)

TLE

ObsoletoSource: Space-Track

Época: Sep 6, 2026, 22:21 UTC

1 26519U 84069L   26249.93159786  .00000029  00000-0  93882-4 0  9996
2 26519  65.0485  71.2548 0049456 326.4342 106.7321 13.90872936658740

Acompanhe COSMOS 1579 COOLANT em tempo real com AllMySat

Download on the App Store